Location: Hains Lake
(37.8540°N, 99.8578°W)
Time: 19:08:38
(UTC+00:00)

Transit 4A - All Passes

Search period start: 19 April 2021 00:00
Search period end: 29 April 2021 00:00
Orbit: 869 x 975 km, 66.8° (Epoch: 19 April)

Date Brightness Start Highest point End Pass type
(mag) Time Alt. Az. Time Alt. Az. Time Alt. Az.
19 Apr - 05:50:48 10° SSW 05:57:05 74° ESE 06:03:13 10° NNE visible
19 Apr - 07:39:32 10° W 07:44:01 20° NW 07:48:27 10° N visible
19 Apr - 13:13:11 10° NNE 13:13:53 10° NE 13:14:35 10° NE daylight
19 Apr - 14:55:50 10° NNW 15:01:36 56° ENE 15:07:17 10° SE daylight
19 Apr - 16:43:19 10° WNW 16:47:25 20° WSW 16:51:29 10° SSW daylight
20 Apr - 04:17:08 10° SE 04:20:42 16° ESE 04:24:14 10° ENE visible
20 Apr - 06:00:05 10° SSW 06:06:22 76° WNW 06:12:31 10° NNE visible
20 Apr - 07:50:29 10° WNW 07:53:43 14° NW 07:56:57 10° N visible
20 Apr - 13:20:29 10° N 13:23:41 15° NE 13:26:50 10° ENE daylight
20 Apr - 15:05:03 10° NNW 15:10:57 84° ENE 15:16:45 10° SSE daylight
20 Apr - 16:54:17 10° W 16:56:25 12° WSW 16:58:33 10° WSW daylight
21 Apr - 04:24:49 10° SSE 04:29:45 25° ESE 04:34:36 10° NE visible
21 Apr - 06:09:39 10° SW 06:15:44 51° WNW 06:21:43 10° NNE visible
21 Apr - 08:03:21 10° NW 08:03:33 10° NW 08:03:44 10° NW visible
21 Apr - 13:29:02 10° N 13:33:22 21° NE 13:37:39 10° E daylight
21 Apr - 15:14:24 10° NW 15:20:12 65° WSW 15:25:55 10° SSE daylight
22 Apr - 04:33:10 10° S 04:38:52 37° ESE 04:44:28 10° NE visible
22 Apr - 06:19:31 10° WSW 06:25:12 35° NW 06:30:47 10° NNE visible
22 Apr - 13:37:52 10° N 13:42:58 29° NE 13:47:59 10° ESE daylight
22 Apr - 15:23:57 10° NW 15:29:24 41° WSW 15:34:46 10° S daylight
23 Apr - 04:41:55 10° S 04:48:03 57° ESE 04:54:04 10° NE visible
23 Apr - 06:29:43 10° WSW 06:34:45 25° NW 06:39:42 10° N visible
23 Apr - 13:46:52 10° NNW 13:52:27 43° NE 13:57:56 10° SE daylight
23 Apr - 15:33:43 10° NW 15:38:30 27° WSW 15:43:14 10° SSW daylight
24 Apr - 03:10:03 10° ESE 03:11:50 11° E 03:13:37 10° E visible
24 Apr - 04:51:01 10° SSW 04:57:18 85° ESE 05:03:28 10° NNE visible
24 Apr - 06:40:18 10° W 06:44:23 18° NW 06:48:25 10° N visible
24 Apr - 12:12:19 10° NNE 12:14:18 12° NE 12:16:17 10° ENE daylight
24 Apr - 13:56:00 10° NNW 14:01:51 64° ENE 14:07:35 10° SE daylight
24 Apr - 15:43:58 10° WNW 15:47:32 17° WSW 15:51:06 10° SW daylight
25 Apr - 03:16:42 10° SE 03:20:51 19° ESE 03:24:55 10° ENE visible
25 Apr - 05:00:24 10° SW 05:06:38 66° WNW 05:12:43 10° NNE visible
25 Apr - 06:51:33 10° WNW 06:54:07 13° NW 06:56:42 10° NNW visible
25 Apr - 12:20:24 10° N 12:24:03 17° NE 12:27:40 10° E daylight
25 Apr - 14:05:17 10° NNW 14:11:10 85° WSW 14:16:57 10° SSE daylight
26 Apr - 03:24:40 10° SSE 03:29:55 29° ESE 03:35:05 10° NE visible
26 Apr - 05:10:04 10° SW 05:16:02 45° WNW 05:21:52 10° NNE visible
26 Apr - 12:29:04 10° N 12:33:42 23° NE 12:38:17 10° E daylight
26 Apr - 14:14:42 10° NW 14:20:24 55° WSW 14:26:01 10° S daylight
27 Apr - 03:33:11 10° S 03:39:04 43° ESE 03:44:49 10° NE visible
27 Apr - 05:20:03 10° WSW 05:25:30 31° NW 05:30:53 10° N visible
27 Apr - 12:37:58 10° N 12:43:15 33° NE 12:48:28 10° ESE daylight
27 Apr - 14:24:18 10° NW 14:29:33 35° WSW 14:34:45 10° S daylight
28 Apr - 03:42:04 10° SSW 03:48:15 66° ESE 03:54:20 10° NNE visible
28 Apr - 05:30:22 10° W 05:35:06 22° NW 05:39:45 10° N visible
28 Apr - 12:47:02 10° NNW 12:52:43 49° ENE 12:58:19 10° SE daylight
28 Apr - 14:34:13 10° WNW 14:38:38 23° WSW 14:43:02 10° SSW daylight
